TimeEST,TemperatureF,Dew PointF,Humidity,Sea Level PressureIn,VisibilityMPH,Wind Direction,Wind SpeedMPH,Gust SpeedMPH,PrecipitationIn,Events,Conditions,WindDirDegrees,DateUTC
12:15 AM,26.6,24.8,93,29.81,10.0,SSW,4.6,-,N/A,,Overcast,210,2007-01-28 05:15:00
12:35 AM,26.6,24.8,93,29.81,10.0,SW,4.6,-,N/A,,Overcast,230,2007-01-28 05:35:00
12:57 AM,26.6,24.8,93,29.81,2.5,SW,4.6,-,N/A,Snow,Light Snow,230,2007-01-28 05:57:00
1:15 AM,26.6,24.8,93,29.80,1.8,WSW,4.6,-,N/A,Snow,Light Snow,240,2007-01-28 06:15:00
1:35 AM,26.6,26.6,100,29.80,0.8,WSW,3.5,-,N/A,Snow,Snow,250,2007-01-28 06:35:00
1:55 AM,26.6,24.8,93,29.79,1.2,Calm,Calm,-,N/A,Snow,Light Snow,0,2007-01-28 06:55:00
2:15 AM,26.6,24.8,93,29.79,0.8,WSW,6.9,-,N/A,Snow,Snow,240,2007-01-28 07:15:00
2:35 AM,26.6,24.8,93,29.79,1.0,WSW,5.8,-,N/A,Snow,Snow,240,2007-01-28 07:35:00
2:55 AM,26.6,24.8,93,29.79,1.5,WSW,8.1,-,N/A,Snow,Light Snow,250,2007-01-28 07:55:00
3:17 AM,26.6,23.0,86,29.78,3.0,WSW,8.1,-,N/A,Snow,Light Snow,250,2007-01-28 08:17:00
3:37 AM,26.6,21.2,80,29.77,7.0,West,9.2,-,N/A,Snow,Light Snow,260,2007-01-28 08:37:00
3:57 AM,24.8,21.2,86,29.77,7.0,WSW,11.5,17.3,N/A,,Overcast,250,2007-01-28 08:57:00
4:17 AM,24.8,21.2,86,29.77,7.0,WSW,11.5,16.1,N/A,,Overcast,250,2007-01-28 09:17:00
4:37 AM,24.8,21.2,86,29.77,5.0,WSW,9.2,16.1,N/A,Snow,Light Snow,240,2007-01-28 09:37:00
4:55 AM,21.2,19.4,93,29.77,4.0,SW,11.5,-,N/A,Snow,Light Snow,220,2007-01-28 09:55:00
5:15 AM,21.2,17.6,86,29.78,4.0,SW,8.1,-,N/A,Snow,Light Snow,230,2007-01-28 10:15:00
5:35 AM,19.4,17.6,93,29.77,2.5,SW,6.9,-,N/A,Snow,Light Snow,230,2007-01-28 10:35:00
5:57 AM,19.4,15.8,86,29.77,2.5,WSW,9.2,-,N/A,Snow,Light Snow,240,2007-01-28 10:57:00
6:15 AM,17.6,15.8,93,29.78,1.5,WSW,8.1,-,N/A,Snow,Light Snow,240,2007-01-28 11:15:00
6:55 AM,17.6,14.0,86,29.79,1.5,SW,10.4,17.3,N/A,Snow,Light Snow,230,2007-01-28 11:55:00
7:15 AM,17.6,14.0,86,29.79,1.0,SW,5.8,-,N/A,Snow,Snow,230,2007-01-28 12:15:00
7:35 AM,15.8,12.2,86,29.79,1.0,SW,6.9,-,N/A,Snow,Light Snow,230,2007-01-28 12:35:00
7:55 AM,15.8,12.2,86,29.79,1.2,SW,9.2,-,N/A,Snow,Light Snow,220,2007-01-28 12:55:00
8:15 AM,14.0,10.4,86,29.79,1.0,SW,9.2,-,N/A,Snow,Light Snow,220,2007-01-28 13:15:00
8:35 AM,14.0,10.4,86,29.79,1.0,SW,9.2,-,N/A,Snow,Light Snow,220,2007-01-28 13:35:00
8:55 AM,14.0,10.4,86,29.79,1.5,SW,8.1,16.1,N/A,Snow,Light Snow,220,2007-01-28 13:55:00
9:15 AM,14.0,10.4,86,29.79,2.5,SW,5.8,-,N/A,Snow,Light Snow,220,2007-01-28 14:15:00
9:35 AM,14.0,10.4,86,29.80,2.5,SSW,8.1,-,N/A,Snow,Light Snow,210,2007-01-28 14:35:00
9:57 AM,14.0,10.4,86,29.80,2.5,SW,9.2,-,N/A,Snow,Light Snow,230,2007-01-28 14:57:00
10:15 AM,14.0,10.4,86,29.80,1.2,SW,6.9,-,N/A,Snow,Light Snow,220,2007-01-28 15:15:00
10:55 AM,15.8,10.4,79,29.80,1.5,SSW,6.9,-,N/A,Snow,Light Snow,210,2007-01-28 15:55:00
11:15 AM,15.8,10.4,79,29.81,1.8,SW,4.6,-,N/A,Snow,Light Snow,220,2007-01-28 16:15:00
11:35 AM,15.8,10.4,79,29.81,2.0,SW,6.9,-,N/A,Snow,Light Snow,220,2007-01-28 16:35:00
11:56 AM,17.6,12.2,79,29.80,1.5,SSW,8.1,-,N/A,Snow,Light Snow,210,2007-01-28 16:56:00
12:15 PM,17.6,12.2,79,29.80,1.2,SW,4.6,-,N/A,Snow,Light Snow,230,2007-01-28 17:15:00
12:35 PM,17.6,14.0,86,29.80,1.2,SW,8.1,-,N/A,Snow,Light Snow,220,2007-01-28 17:35:00
12:55 PM,19.4,14.0,80,29.80,1.8,SW,5.8,-,N/A,Snow,Light Snow,220,2007-01-28 17:55:00
1:15 PM,19.4,14.0,80,29.80,1.8,SW,8.1,-,N/A,Snow,Light Snow,220,2007-01-28 18:15:00
1:35 PM,19.4,15.8,86,29.80,1.2,WSW,6.9,-,N/A,Snow,Light Snow,250,2007-01-28 18:35:00
1:55 PM,19.4,15.8,86,29.80,0.8,WSW,9.2,-,N/A,Snow,Light Snow,250,2007-01-28 18:55:00
2:17 PM,19.4,14.0,80,29.81,0.8,WSW,9.2,-,N/A,Snow,Light Snow,250,2007-01-28 19:17:00
2:35 PM,19.4,14.0,80,29.81,1.5,West,10.4,-,N/A,Snow,Light Snow,260,2007-01-28 19:35:00
2:55 PM,19.4,14.0,80,29.82,2.0,West,9.2,16.1,N/A,Snow,Light Snow,260,2007-01-28 19:55:00
3:15 PM,19.4,15.8,86,29.82,1.5,WSW,4.6,-,N/A,Snow,Light Snow,240,2007-01-28 20:15:00
3:35 PM,19.4,12.2,74,29.83,4.0,SW,8.1,-,N/A,Snow,Light Snow,230,2007-01-28 20:35:00
3:57 PM,17.6,14.0,86,29.85,1.2,West,8.1,-,N/A,Snow,Light Snow,270,2007-01-28 20:57:00
4:15 PM,17.6,14.0,86,29.85,0.8,West,5.8,-,N/A,Snow,Light Snow,260,2007-01-28 21:15:00
4:35 PM,17.6,15.8,93,29.86,1.8,West,6.9,-,N/A,Snow,Light Snow,260,2007-01-28 21:35:00
4:57 PM,19.4,15.8,86,29.88,1.2,West,5.8,-,N/A,Snow,Light Snow,260,2007-01-28 21:57:00
5:15 PM,19.4,17.6,93,29.89,1.8,West,4.6,-,N/A,Snow,Light Snow,280,2007-01-28 22:15:00
5:37 PM,17.6,15.8,93,29.90,10.0,Calm,Calm,-,N/A,,Mostly Cloudy,0,2007-01-28 22:37:00
5:55 PM,17.6,15.8,93,29.91,10.0,NNW,5.8,-,N/A,,Overcast,330,2007-01-28 22:55:00
6:15 PM,19.4,12.2,74,29.93,10.0,NNW,5.8,-,N/A,,Mostly Cloudy,340,2007-01-28 23:15:00
6:35 PM,19.4,14.0,80,29.94,7.0,NNW,5.8,-,N/A,Snow,Light Snow,330,2007-01-28 23:35:00
7:15 PM,15.8,12.2,86,29.95,10.0,Calm,Calm,-,N/A,,Clear,0,2007-01-29 00:15:00
7:35 PM,12.2,10.4,92,29.96,10.0,Calm,Calm,-,N/A,,Clear,0,2007-01-29 00:35:00
7:55 PM,8.6,8.6,100,29.97,10.0,Calm,Calm,-,N/A,,Clear,0,2007-01-29 00:55:00
8:15 PM,10.4,8.6,92,29.98,0.2,West,3.5,-,N/A,Fog,Light Freezing Fog,270,2007-01-29 01:15:00
8:35 PM,10.4,8.6,92,29.99,0.8,Calm,Calm,-,N/A,Fog,Light Freezing Fog,0,2007-01-29 01:35:00
8:55 PM,3.2,-0.4,85,29.99,0.8,Calm,Calm,-,N/A,,Mist,0,2007-01-29 01:55:00
9:15 PM,3.2,1.4,92,30.00,1.2,Calm,Calm,-,N/A,,Mist,0,2007-01-29 02:15:00
9:35 PM,3.2,1.4,92,30.01,0.2,Calm,Calm,-,N/A,Fog,Light Freezing Fog,0,2007-01-29 02:35:00
9:55 PM,3.2,1.4,92,30.01,0.5,Calm,Calm,-,N/A,Fog,Light Freezing Fog,0,2007-01-29 02:55:00
10:15 PM,8.6,6.8,92,30.02,3.0,Calm,Calm,-,N/A,,Clear,0,2007-01-29 03:15:00
10:35 PM,3.2,-0.4,85,30.02,0.8,Calm,Calm,-,N/A,,Mist,0,2007-01-29 03:35:00
10:55 PM,5.0,1.4,85,30.03,4.0,Calm,Calm,-,N/A,,Scattered Clouds,0,2007-01-29 03:55:00
11:15 PM,6.8,3.2,85,30.03,1.5,Calm,Calm,-,N/A,,Overcast,0,2007-01-29 04:15:00
11:35 PM,6.8,3.2,85,30.03,10.0,Calm,Calm,-,N/A,,Overcast,0,2007-01-29 04:35:00
11:55 PM,6.8,3.2,85,30.04,7.0,Calm,Calm,-,N/A,,Overcast,0,2007-01-29 04:55:00